Regional Weather Roundup
Issued by NWS Little Rock, AR

Home | Current Version | Previous Version | Graphics & Text | Print | Product List | Glossary On
Versions: 1 2 3 4 5 6 7 8 9 10 11 12 13 14 15 16 17 18 19 20 21 22 23 24 25 26 27 28 29 30 31
000
ASUS44 KLZK 240615
RWRLZK

WEATHER ROUNDUP FOR ARKANSAS
NATIONAL WEATHER SERVICE LITTLE ROCK AR
100 AM CDT THU MAY 24 2018

NOTE: "FAIR" INDICATES FEW OR NO CLOUDS BELOW 12,000 FEET WITH NO
SIGNIFICANT WEATHER AND/OR OBSTRUCTIONS TO VISIBILITY.

ARZ001-003-010-029-240700-
NORTHWEST ARKANSAS

CITY           SKY/WX    TMP DP  RH WIND       PRES   REMARKS
FAYETTEVILLE   CLOUDY    64  63  96 CALM      30.12F FOG
6HR MIN TEMP:  63; 6HR MAX TEMP:  70;

FORT SMITH     PTCLDY    69  67  93 E7        30.09F
6HR MIN TEMP:  68; 6HR MAX TEMP:  74;

HARRISON       PTCLDY    65  65 100 CALM      30.15R
6HR MIN TEMP:  65; 6HR MAX TEMP:  69;

BENTONVILLE    CLOUDY    66  63  90 CALM      30.14S
6HR MIN TEMP:  66; 6HR MAX TEMP:  73;

ROGERS         PTCLDY    64  63  96 E5        30.13S
6HR MIN TEMP:  64; 6HR MAX TEMP:  71;

SILOAM SPGS    PTCLDY    65  64  97 SE3       30.12F
6HR MIN TEMP:  64; 6HR MAX TEMP:  72;

HIGHFILL       CLOUDY    65  62  90 CALM      30.13S
6HR MIN TEMP:  64; 6HR MAX TEMP:  73;

$$

ARZ004-005-016-240700-
NORTH CENTRAL ARKANSAS

CITY           SKY/WX    TMP DP  RH WIND       PRES   REMARKS
BATESVILLE     FOG       67  67 100 CALM      30.11R VSB 1/4
6HR MIN TEMP:  67; 6HR MAX TEMP:  70; 6HR PCP:  0.01;

FLIPPIN        PTCLDY    66  65  96 CALM      30.13R
6HR MIN TEMP:  66; 6HR MAX TEMP:  73;

MTN HOME       CLOUDY    64  64 100 CALM      30.12S FOG
6HR MIN TEMP:  64; 6HR MAX TEMP:  67; 6HR PCP:  0.35;

$$

ARZ040-041-240700-
WEST CENTRAL ARKANSAS

CITY           SKY/WX    TMP DP  RH WIND       PRES   REMARKS
MENA           CLOUDY   N/A N/A N/A CALM      30.12F
MOUNT IDA      CLOUDY    68  68 100 CALM      30.09R
6HR MIN TEMP:  68; 6HR MAX TEMP:  76;

$$

ARZ009-017-025-026-028-240700-
NORTHEAST ARKANSAS

CITY           SKY/WX    TMP DP  RH WIND       PRES   REMARKS
CORNING        FAIR      73  73 100 CALM      30.08F
JONESBORO      FAIR      72  71  97 CALM      30.07F
6HR MIN TEMP:  71; 6HR MAX TEMP:  74; 6HR PCP: TRACE;

NEWPORT        FAIR      69  69 100 CALM      30.09F
6HR MIN TEMP:  69; 6HR MAX TEMP:  71; 6HR PCP:  0.03;

WALNUT RIDGE     N/A     71  69  93 NW3       30.08F
6HR MIN TEMP:  71; 6HR MAX TEMP:  73; 6HR PCP:  0.03;

BLYTHEVILLE    FAIR      76  67  73 E3        30.07F
6HR MIN TEMP:  75; 6HR MAX TEMP:  83;

$$

ARZ022-023-033-042-044-240700-
CENTRAL ARKANSAS

CITY           SKY/WX    TMP DP  RH WIND       PRES   REMARKS
LITTLE ROCK    CLOUDY    67  67 100 CALM      30.10R
6HR MIN TEMP:  67; 6HR MAX TEMP:  72;

N LITTLE ROCK    N/A     67  66  99 CALM      30.06R
6HR MIN TEMP:  66; 6HR MAX TEMP:  69;

JACKSONVILLE   CLOUDY    68  68 100 CALM      30.09R
6HR MIN TEMP:  68; 6HR MAX TEMP:  72; 6HR PCP: TRACE;

CONWAY         PTCLDY    68  68 100 CALM      30.09S FOG
SEARCY         FAIR      68  68 100 W3        30.10R
6HR MIN TEMP:  67; 6HR MAX TEMP:  73;

HOT SPRINGS    CLOUDY    71  70  96 S3        30.10S
6HR MIN TEMP:  70; 6HR MAX TEMP:  75;

RUSSELLVILLE   CLOUDY    68  68 100 CALM      30.10S
6HR MIN TEMP:  66; 6HR MAX TEMP:  69; 6HR PCP:  0.02;

CLINTON        FAIR      66  64  94 CALM      30.12R FOG
$$

ARZ036-240700-
EAST ARKANSAS

CITY           SKY/WX    TMP DP  RH WIND       PRES   REMARKS
WEST MEMPHIS   FAIR      74  71  91 W3        30.07F
6HR MIN TEMP:  72; 6HR MAX TEMP:  79;

$$

ARZ050-053-066-070-073-240700-
SOUTHWEST ARKANSAS

CITY           SKY/WX    TMP DP  RH WIND       PRES   REMARKS
ARKADELPHIA    FAIR      70  70 100 NE3       30.08F FOG
6HR MIN TEMP:  69; 6HR MAX TEMP:  72; 6HR PCP: TRACE;

CAMDEN         FAIR      72  64  78 CALM      30.07F
TEXARKANA      CLOUDY    70  69  97 SW3       30.07S
6HR MIN TEMP:  69; 6HR MAX TEMP:  73; 6HR PCP:  0.05;

EL DORADO      FAIR      69  68  96 SE6       30.06F
6HR MIN TEMP:  68; 6HR MAX TEMP:  80; 6HR PCP:  0.45;

DE QUEEN       CLOUDY    70  70 100 CALM      30.07F
6HR MIN TEMP:  69; 6HR MAX TEMP:  84; 6HR PCP:  0.89;

$$

ARZ056-057-069-240700-
SOUTHEAST ARKANSAS

CITY           SKY/WX    TMP DP  RH WIND       PRES   REMARKS
PINE BLUFF     FAIR      71  68  90 SW3       30.08F
6HR MIN TEMP:  71; 6HR MAX TEMP:  76;

STUTTGART      FAIR      71  70  96 SW6       30.09R
6HR MIN TEMP:  71; 6HR MAX TEMP:  76;

MONTICELLO     FAIR      73  71  93 VRB5      30.08F
6HR MIN TEMP:  72; 6HR MAX TEMP:  77;


$$






USA.gov is the U.S. government's official web portal to all federal, state and local government web resources and services.